Skip Page Navigation
NASA JPL Caltech
NASA Logo - Jet Propulsion Laboratory + View the NASA Portal
+ Center for Near-Earth Object Studies
JPL Home Earth Solar System Stars & Galaxies Technology
JPL Solar System Dynamics
BODIES ORBITS EPHEMERIDES TOOLS PHYSICAL DATA DISCOVERY FAQ SITE MAP
JPL Small-Body Database Browser
Search: [ help ]  
214546 (2006 OF20)
Classification: Main-belt Asteroid          SPK-ID: 2214546
Ephemeris | Orbit Diagram | Orbital Elements | Mission Design | Physical Parameters | Discovery Circumstances ]

[ show orbit diagram ]
Orbital Elements at Epoch 2459000.5 (2020-May-31.0) TDB
Reference: JPL 15 (heliocentric ecliptic J2000)
 Element Value Uncertainty (1-sigma)   Units 
e .1261200645565828 4.3566e-08  
a 2.411328561978524 2.492e-08 au
q 2.10721164807466 1.053e-07 au
i 7.535814784612337 5.8636e-06 deg
node 47.02718257745947 3.7438e-05 deg
peri 245.1890626016252 5.0775e-05 deg
M 267.7267905091073 4.2757e-05 deg
tp 2459351.054977782232
(2021-May-16.55497778)
0.00016617 TDB
period 1367.675327409734
3.74
2.1201e-05
5.805e-08
d
yr
n .2632203658172373 4.0804e-09 deg/d
Q 2.715445475882387 2.8063e-08 au
  Orbit Determination Parameters
   # obs. used (total)      324  
   data-arc span      6021 days (16.48 yr)  
   first obs. used      2003-10-27  
   last obs. used      2020-04-21  
   planetary ephem.      DE431  
   SB-pert. ephem.      SB431-N16  
   condition code      0  
   norm. resid. RMS      .5587  
   source      ORB  
   producer      Otto Matic  
   solution date      2020-May-21 09:08:19  

Additional Information
 Earth MOID = 1.10436 au 
 Jupiter MOID = 2.45162 au 
 T_jup = 3.497 
[ show covariance matrix ]

Ephemeris | Orbit Diagram | Orbital Elements | Mission Design | Physical Parameters | Discovery Circumstances ]

Physical Parameter Table
Parameter Symbol Value Units Sigma Reference Notes
absolute magnitude H 16.5   n/a MPO470303  

214546 (2006 OF20)          Discovered 2006-Jul-18 by Siding Spring Survey at Siding Spring
Reference: 20090509/Numbers.arcLast Updated: 2009-05-11

Alternate Designations
 2006 OF20 = 2005 EU241 
Ephemeris | Orbit Diagram | Orbital Elements | Mission Design | Physical Parameters | Discovery Circumstances ]
ABOUT SSD CREDITS/AWARDS PRIVACY/COPYRIGHT GLOSSARY LINKS
FirstGov 2020-Jul-05 21:17 UT
(server date/time)  
NASA Home Page
Site Manager:   Ryan S. Park
Webmaster  Alan B. Chamberlin